Miscellaneous Local Product
Issued by NWS North Platte, NE

Home | Current Version | Previous Version | Graphics & Text | Print | Product List | Glossary On
Versions: 1 2 3 4 5 6 7 8 9 10 11 12 13 14 15 16 17 18 19 20 21 22 23 24 25 26 27 28 29 30 31 32 33 34 35 36 37 38 39 40 41 42 43 44 45 46 47 48 49 50
923
AXUS43 KLBF 270110
MISLBF


WESTERN AND NORTH CENTRAL NEBRASKA HOURLY WEATHER ROUNDUP
NATIONAL WEATHER SERVICE NORTH PLATTE NE
800 PM CDT SUN MAR 26 2017

NOTE: "FAIR" INDICATES FEW OR NO CLOUDS BELOW 12,000 FEET WITH NO
SIGNIFICANT WEATHER AND/OR OBSTRUCTIONS TO VISIBILITY.

NOTE: STATIONS NOT REPORTING VARIABLES SUCH AS SKY/WEATHER OR
PRESSURE ARE PROVIDED BY RAWS AND APRS NETWORKS AND ARE NOT UNDER
NATIONAL WEATHER SERVICE QUALITY CONTROL.

...OBSERVATIONS IN AND NEAR THE EASTERN PANHANDLE OF NEBRASKA...

CITY           SKY/WX    TMP DP  RH WIND       PRES   REMARKS
PINE RIDGE     CLEAR     45  39  79 NE6       29.93R
CHADRON        CLOUDY    48  39  71 NE6       29.92S
ALLIANCE       CLEAR     46  38  73 N13       29.91R
SIDNEY         CLEAR     49  37  63 N14       29.92R
CRESCENT LAKE    N/A     51  37  58 N9          N/A
$$

...OBSERVATIONS IN NORTHERN NEBRASKA AND FAR SOUTHERN SOUTH DAKOTA...

CITY           SKY/WX    TMP DP  RH WIND       PRES   REMARKS
WINNER         FAIR      44  36  73 N6        29.93S
VALENTINE      CLOUDY    49  36  61 NE9       29.92R
THEDFORD       CLOUDY    54  40  57 E7        29.90R
AINSWORTH      PTCLDY    45  41  87 NE6       29.92R
O`NEILL        CLOUDY    46  41  84 NE5       29.94R
ORD            PTCLDY    48  41  76 E5        29.92R
BROKEN BOW     PTCLDY    51  43  74 E9        29.90R
VALENTINE NWR    N/A     50  39  66 N7          N/A
HALSEY           N/A     55  37  51 NE5G13      N/A
BUTTE            N/A     43  40  88 NE5         N/A
CHAMBERS         N/A     45  40  82 CALM        N/A
EWING            N/A     44  41  90 NE3         N/A
$$

...OBSERVATIONS IN SOUTHWEST NEBRASKA AND FAR NORTHEAST COLORADO...

CITY           SKY/WX    TMP DP  RH WIND       PRES   REMARKS
WRAY           CLOUDY    55  36  47 CALM      29.89
HOLYOKE        FAIR      54  37  54 NE7       29.90R
IMPERIAL       CLOUDY    53  40  61 E6        29.89R
OGALLALA       CLOUDY    56  37  49 N3        29.89R
NORTH PLATTE   CLOUDY    55  40  56 SE8       29.89R
MCCOOK         CLOUDY    50  42  74 SE8       29.91R
LEXINGTON      CLOUDY    49  42  77 E9        29.92R
STAPLETON        N/A     53  41  64 CALM        N/A
GOTHENBURG       N/A     57  34  42 CALM        N/A
CALLAWAY         N/A     54  43  66 SE7         N/A
$$

...OBSERVATIONS IN CENTRAL LINCOLN COUNTY AREA...

CITY           SKY/WX    TMP DP  RH WIND       PRES   REMARKS
N.P. AIRPORT   CLOUDY    55  40  56 SE8       29.89R
N.P. DOWNTOWN    N/A     56  42  58 E5          N/A
N.P. SOUTHEAST   N/A     55  42  62 E5G12       N/A
N.P. HILLCREST   N/A     55  42  62 SE9         N/A
$$

...SOME OBSERVATIONS FROM AROUND THE REGION...

CITY           SKY/WX    TMP DP  RH WIND       PRES   REMARKS
DENVER         MOCLDY    48  35  60 N7        29.96R
LIMON          CLEAR     45  36  70 N7        29.94R
ASPEN          CLOUDY    45  25  45 N6        29.99R
LARAMIE        CLOUDY    40  29  64 N7        29.95R
CASPER         CLEAR     48  31  51 S3        29.89S
CHEYENNE       CLEAR     42  33  70 N9        29.95R
SCOTTSBLUFF    MOCLDY    48  36  63 NW6       29.94R
GRAND ISLAND   CLOUDY    47  45  93 E6        29.95R
OMAHA          CLOUDY    49  41  74 NW3       29.95R
SIOUX FALLS    CLOUDY    45  39  79 N5        29.93R
PIERRE         CLOUDY    45  38  76 NW7       29.92S
RAPID CITY     CLOUDY    43  39  86 NW5       29.93R
BISMARCK       CLEAR     50  37  61 E7        29.91R
KANSAS CITY    CLOUDY    50  45  83 N5        29.94R
HILL CITY      CLOUDY    46  45  96 NW5       29.94R
WICHITA        LGT RAIN  53  49  86 NE15      29.79R
DODGE CITY     CLOUDY    46  43  89 N14       29.87R
OKLAHOMA CITY  PTCLDY    66  59  78 SE9       29.67F
DALLAS         CLOUDY    80  59  48 S25G35    29.67F THUNDER
AMARILLO       CLEAR     55  38  52 N15       29.85R
$$




USA.gov is the U.S. government's official web portal to all federal, state and local government web resources and services.